Location: Asheville, NC
(35.6000°N, 82.5500°W)
Time: 14:27:49
(UTC-04:00)

UWE-3 - Pass Details

Date: 09 January 2018
Orbit: 586 x 684 km, 97.6° (Epoch: 24 April)

Event Time Altitude Azimuth Distance (km) Brightness Sun altitude
Rises 19:50:37 0° 182° (S) 2,820 ? -27.0°
Reaches altitude 10° 19:52:49 10° 188° (S) 1,933 ? -27.5°
Maximum altitude 19:56:51 44° 261° (W) 842 ? -28.3°
Drops below altitude 10° 20:01:00 10° 335° (NNW) 1,999 ? -29.1°
Sets 20:03:19 0° 341° (NNW) 2,927 ? -29.6°
